sat.trackr.live / text

‹ back to catalog

STARLINK-2621

NORAD 48370 · 2021-038T

PAYLOAD ACTIVE UNKNOWN

§ Identity

Operator
Country
US
Launch date
2021-05-04
Launch site
AFETR
Launch vehicle
Mass (kg)
RCS (m²)

Purposes: comms

External: N2YO · Heavens-Above · Gunter

§ Orbital elements

Epoch: 2026-09-19T22:07:55.235712Z

Period
94.01 min
Inclination
53.1593°
Eccentricity
0.0001665
Mean motion
15.31675256 rev/d
Perigee alt
469.7 km
Apogee alt
472.0 km
Semi-major
6,849.0 km
B*
3.5083e-4
RAAN
163.8380°
Arg perigee
98.4951°
Mean anomaly
261.6239°
Rev number
29,698

§ Raw data

STARLINK-26211 48370U 21038T   26262.92216708  .00010529  00000+0  35083-3 0  99972 48370  53.1593 163.8380 0001665  98.4951 261.6239 15.31675256296987

JSON: /api/v1/satellites/48370 · /tle

For live sub-satellite position, see the globe view (requires WebGL).

§ Visibility from observer

Set your observer location to see the next 7 days of passes ≥ 10°. The values pass through the URL so the page stays shareable.

No JS? Fill the form by hand. The geolocation button needs JavaScript.